SCP
0 0 0 0 0 0 0 0 0 0 0 0 0 0 0 -0 0 0 0 0 0 0 0 0 0 0 0 0 0 0 0 0 0 0 0 0 0 0 0 0 0 0 0 0
0 0 0 0 0 0 0 0 0 0 0 0 0 0 0 0 0 0 0 0 0 0 0 0 0 0 0 0 0 0 0 0 0 0 0 0 0 0 0 0 0 0 0 0
0 0 0 0 0 0 0 0 0 0 0 0 0 -0 0 0 0 0 0 0 0 0 0 0 0 0 0 0 0 0 0 0 0 0 0 0 0 0 0 0 0 0 0 0
0 0 0 0 0 0 0 0 0 0 0 0 0 -0 0 0 0 0 0 0 0 0 0 0 0 0 0 0 0 0 0 0 0 0 0 0 0 0 0 0 0 0 0 0
0 0 0 0 0 0 0 0 0 0 0 0 0 0 0 0 0 0 0 0 0 -0 0 0 0 0 0 0 0 0 0 0 0 0 0 0 0 0 0 0 0 0 0 0
0 0 0 0 0 0 0 0 0 0 0 0 0 0 0 0 0 0 0 0 0 0 -0 0 0 0 0 0 0 0 0 0 0 0 0 0 0 0 0 0 0 0 0 0
0 0 0 0 0 0 0 0 0 0 0 0 0 0 0 0 0 0 0 0 0 0 0 0 0 0 0 0 0 0 0 0 0 0 0 0 0 0 0 0 0 0 0 0
0 0 0 0 0 0 0 0 0 0 0 0 0 0 0 0 0 0 0 0 0 0 0 0 0 0 0 0 0 0 0 0 0 0 0 0 0 0 0 0 0 0 0 0
0 0 0 0 0 0 0 0 0 0 0 0 0 0 0 0 0 0 0 0 0 0 0 0 0 0 0 0 0 0 0 0 0 0 0 0 0 0 0 0 0 0 0 0
0 0 0 0 0 0 0 0 0 0 0 0 0 0 0 0 0 0 0 0 0 0 0 0 0 0 0 0 0 0 0 0 0 0 0 0 0 0 0 0 0 0 0 0
0 0 0 0 0 0 0 0 0 0 0 0 0 0 0 0 0 0 0 0 -0 0 0 0 0 0 0 0 0 0 0 0 0 0 0 0 0 0 0 0 0 0 0 0
0 0 0 0 0 0 0 0 0 0 0 0 0 0 0 0 0 0 0 0 0 -0 0 0 0 0 0 0 0 0 0 0 0 0 0 0 0 0 0 0 0 0 0 0
0 0 0 0 0 0 0 0 0 0 0 0 0 0 0 0 0 0 0 0 0 0 0 0 0 -0 0 0 0 0 0 0 0 0 0 0 0 0 0 0 0 0 0 0
0 0 0 0 0 0 0 0 0 0 0 0 0 0 0 0 0 0 0 0 0 0 0 0 0 0 -0 0 0 0 0 0 0 0 0 0 0 0 0 0 0 0 0 0
0 0 0 0 0 0 0 0 0 0 0 0 0 0 0 0 0 0 0 0 0 0 0 0 0 0 0 0 0 0 0 0 0 0 0 0 0 0 0 0 0 0 0 0
0 0 0 0 0 0 0 0 0 0 0 0 0 0 0 0 0 0 0 0 0 0 0 0 0 0 0 0 0 0 0 0 0 0 0 0 0 0 0 0 0 0 0 0
0 0 0 0 0 0 0 0 0 0 0 0 0 0 0 0 0 0 0 0 0 0 0 0 0 0 0 0 0 0 0 0 0 0 0 0 0 0 0 0 0 0 0 0
0 0 0 0 -0 0 0 0 0 0 0 0 0 0 0 0 0 0 0 0 0 0 0 0 0 0 0 0 0 0 0 0 0 0 0 0 0 0 0 0 0 0 0 0
0 0 0 0 0 0 0 0 0 0 0 0 0 0 0 0 0 0 0 0 0 0 0 0 0 0 0 0 0 0 0 0 0 0 0 0 0 0 0 0 0 0 0 0
0 0 0 0 0 0 0 0 0 0 0 0 0 0 0 0 0 0 0 0 0 0 0 0 0 0 0 0 0 0 0 0 0 0 0 0 0 0 0 0 0 0 0 0
0 0 0 0 0 0 0 0 -0 0 -0 -0 -0 -0 0 0 0 0 0 0 0 0 0 0 0 0 0 0 0 0 0 0 0 0 0 0 0 0 0 0 0 0 0 0
0 0 0 0 0 0 0 -0 0 -0 -0 -0 -0 -0 -0 -0 -0 -0 -0 -0 -0 -0 -0 -0 0 0 0 0 0 0 0 0 0 0 0 0 0 0 0 0 0 0 0 0
0 0 0 0 0 0 -0 -0 -0 -0 -0 -0 -0 -0 -0 -0 -0 -0 -0 -0 -0 -0 -0 -0 -0 -0 -0 -0 -0 0 0 0 0 0 0 0 0 0 0 0 0 0 0 0
0 0 0 0 0 -0 0 -0 0 0 -0 -0 -0 -0 -0 -0 -0 -0 -0 -0 -0 -0 -0 -0 -0 -0 -0 -0 -0 0 0 0 0 0 0 0 0 0 0 0 0 0 0 0
0 0 0 0 0 0 0 0 0 -0 0 -0 -0 -0 -0 -0 -0 -0 -0 -0 -0 -0 -0 -0 -0 -0 -0 0 -0 0 0 0 0 0 0 0 0 0 0 0 0 0 0 0
0 0 0 0 0 0 0 0 0 0 0 0 -0 -0 -0 -0 -0 -0 -0 -0 -0 -0 -0 -0 -0 0 0 0 -0 0 0 0 0 0 0 0 0 0 0 0 0 0 0 0
Wind_Speed_500mb
12 9 20 46 34 9 6 13 14 18 19 11 24 32 37 64 43 48 71 88 92 95 108 96 96 89 86 85 89 90 90 87 86 86 84 83 85 83 82 77 71 69 64 61
4 22 40 12 12 21 27 33 39 30 34 15 30 45 34 29 51 64 67 78 93 100 100 106 102 84 75 77 87 97 96 92 89 88 86 86 83 84 83 79 77 74 70 67
36 19 29 23 15 16 31 30 34 36 13 11 20 34 24 28 54 70 78 87 98 101 108 105 97 83 70 73 80 93 98 95 91 88 87 87 84 83 85 86 85 82 76 72
18 26 27 16 18 29 42 25 30 21 6 23 4 39 14 17 28 24 54 75 82 94 98 100 94 77 70 73 74 86 97 94 89 88 87 94 94 92 94 94 91 85 80 77
18 9 13 25 43 20 35 9 13 6 8 11 11 12 7 17 16 25 31 64 77 84 91 87 82 66 63 63 67 78 91 92 89 87 88 91 93 89 90 91 88 85 82 80
22 4 10 17 10 18 5 7 9 9 3 23 24 19 5 13 17 12 21 64 76 69 72 83 54 49 53 58 67 79 90 90 88 86 90 92 90 91 93 93 87 85 86 83
5 12 10 16 8 4 8 11 7 7 1 25 17 15 42 11 17 24 27 53 63 71 82 74 54 46 56 61 67 78 86 90 91 90 89 89 91 92 90 91 89 87 88 91
5 28 20 11 21 19 22 24 13 16 28 44 12 23 24 21 27 51 59 68 73 80 79 67 42 43 51 61 66 75 83 89 92 88 90 92 92 92 92 90 89 90 89 86
10 28 4 7 3 17 6 12 32 3 2 1 22 30 18 11 15 16 31 46 72 77 68 54 46 43 44 53 63 73 77 85 91 92 96 97 95 94 95 91 88 90 89 85
8 23 10 7 4 2 14 3 3 3 5 16 30 11 31 19 30 13 17 28 50 44 45 49 46 41 39 45 53 61 68 80 91 99 100 100 99 97 96 92 90 89 89 88
8 6 39 1 14 27 1 10 10 5 10 30 36 34 14 10 11 11 13 30 46 41 32 21 24 32 36 36 48 49 66 82 96 95 98 104 107 106 105 101 95 90 89 86
12 12 17 36 17 9 9 26 26 23 26 18 30 36 55 39 40 28 43 52 47 36 29 22 27 29 36 47 52 69 73 83 86 88 96 102 109 112 112 113 107 98 94 88
15 10 15 12 13 18 23 36 29 29 27 47 42 41 45 50 49 60 32 52 63 72 69 72 57 54 56 69 73 77 74 79 76 87 95 106 112 111 113 117 114 105 100 93
23 24 34 41 39 11 13 16 18 31 32 45 43 46 47 57 57 68 63 65 64 70 71 76 82 96 87 76 78 65 79 83 87 94 102 109 113 109 110 113 115 110 105 98
14 30 33 44 55 51 60 58 59 57 57 47 50 51 51 67 72 63 64 58 52 56 57 58 73 85 92 88 88 90 93 89 88 96 108 112 109 107 109 114 111 110 107 100
16 16 33 49 51 53 56 64 66 66 64 62 62 63 61 67 91 65 73 73 53 44 34 40 52 69 84 88 93 92 97 93 90 100 108 108 113 111 109 108 108 107 104 96
16 19 29 39 28 40 43 58 58 65 58 59 61 64 41 38 38 38 45 57 51 51 51 55 57 66 66 64 71 76 78 77 83 90 98 105 108 108 107 103 103 104 102 97
43 45 31 38 45 60 44 21 41 55 62 36 27 33 29 39 62 13 53 71 62 64 64 71 76 77 80 70 64 59 53 53 63 75 83 91 97 99 100 98 97 99 99 98
39 36 22 29 41 46 43 16 17 27 2 32 18 33 34 54 65 7 70 73 67 68 71 71 73 82 80 71 70 63 55 42 46 58 68 77 85 89 91 90 93 96 98 98
18 14 24 33 35 43 14 23 62 29 12 27 23 32 25 45 32 32 85 70 71 74 79 75 76 82 80 75 71 69 66 57 47 49 59 65 67 74 79 80 84 90 91 95
8 9 19 26 31 19 20 26 39 8 16 35 19 17 31 23 26 75 73 67 66 69 80 81 78 80 82 82 73 73 68 58 51 43 48 49 52 57 65 70 75 82 86 89
8 12 14 7 11 31 48 14 2 13 20 26 31 40 42 43 52 59 64 62 63 67 69 74 88 100 96 84 72 74 72 61 58 46 44 42 41 43 51 63 71 78 78 86
10 11 5 6 9 47 49 20 41 22 15 28 43 46 47 47 51 57 65 73 72 72 77 78 79 90 95 87 79 71 65 60 60 64 55 55 42 38 43 54 63 70 76 84
8 18 7 8 13 23 43 48 15 24 45 43 46 52 54 54 68 68 70 85 86 88 82 77 80 82 95 88 84 80 83 76 75 72 68 66 65 62 53 52 62 69 77 86
16 1 14 14 29 41 39 39 37 39 33 41 55 58 60 50 75 69 82 94 93 93 99 87 78 83 103 99 91 85 81 83 85 80 81 82 77 76 73 70 70 77 83 87
32 34 23 27 44 33 42 49 41 30 31 49 44 51 68 57 70 75 78 82 79 94 94 97 105 104 110 97 94 89 68 67 73 80 86 89 87 84 79 78 76 75 84 85
Wind_Direction_500mb
191 130 205 228 209 221 199 219 230 254 265 218 234 244 252 269 268 258 262 264 262 262 267 267 266 265 261 252 247 241 237 234 227 224 223 225 228 228 229 229 230 231 232 234
159 210 222 242 196 225 243 256 261 267 265 204 254 258 259 260 266 262 259 263 263 267 268 268 270 270 263 255 251 240 236 234 228 226 228 229 231 231 233 232 232 233 233 234
223 222 220 222 227 230 231 236 251 252 300 241 283 271 252 249 255 263 259 256 264 265 267 270 272 270 262 252 245 241 236 232 228 226 225 228 230 231 231 230 231 232 232 233
244 236 216 200 222 212 260 228 254 260 278 272 91 292 212 235 245 247 254 262 258 263 266 268 271 267 257 258 247 239 234 231 227 227 228 228 230 227 229 231 232 232 232 234
240 193 196 217 233 189 259 237 247 236 234 325 203 252 189 204 241 249 254 251 263 275 275 275 271 266 259 248 245 240 231 229 227 230 231 230 231 233 235 234 234 234 234 235
244 206 193 219 187 192 129 62 24 49 39 268 216 210 60 167 207 248 251 257 262 268 272 274 274 248 240 241 239 235 228 226 228 230 231 231 233 233 234 234 234 234 235 235
305 219 212 183 229 144 140 112 293 311 70 254 195 220 260 253 221 213 238 252 264 270 267 264 264 240 228 229 233 232 227 227 227 229 230 231 233 235 237 238 238 236 235 235
271 289 172 177 198 198 209 201 186 208 264 272 145 251 271 225 238 233 247 262 271 269 269 266 244 246 235 230 227 229 230 230 231 232 230 230 231 235 237 239 239 241 241 241
208 265 124 192 170 154 168 190 231 292 63 10 260 275 283 230 279 292 292 299 286 277 275 266 243 240 229 231 231 232 231 234 236 234 231 231 232 234 236 238 239 240 243 243
298 282 211 95 42 37 176 172 74 200 197 258 271 242 263 289 275 287 309 311 326 310 269 251 243 238 229 240 245 242 242 243 239 235 235 236 236 235 238 238 240 241 242 242
63 37 278 356 195 244 253 233 220 220 208 245 258 270 232 197 173 289 297 340 343 330 297 263 256 255 254 251 250 256 252 246 242 242 241 241 241 240 240 240 239 241 243 243
208 170 224 256 266 246 223 261 243 247 251 234 255 253 280 277 284 277 284 292 297 310 262 248 285 293 282 277 269 282 264 255 252 249 246 247 245 244 243 244 242 240 241 241
182 214 266 275 283 250 229 239 240 256 263 250 253 254 253 275 275 275 264 272 276 281 271 270 290 292 292 287 281 277 262 255 258 254 252 250 248 247 246 246 244 242 241 239
234 247 243 254 254 266 243 205 217 243 256 261 252 262 268 269 272 272 270 278 275 273 273 281 285 290 297 289 284 280 285 270 266 259 257 254 250 250 249 248 246 242 240 237
211 246 243 247 258 262 262 260 261 254 237 240 250 255 254 261 268 271 282 274 280 283 289 292 285 280 282 281 276 279 277 271 272 263 259 259 258 254 250 248 247 242 239 237
327 296 287 273 254 246 247 253 257 257 253 256 260 259 259 262 266 281 280 285 295 291 324 335 327 305 290 281 283 281 280 278 276 267 263 260 255 252 250 248 245 239 236 233
262 277 282 279 297 302 278 248 253 256 265 265 264 267 319 314 312 326 17 32 8 1 353 351 355 353 340 315 299 289 286 281 276 271 267 261 255 251 249 246 241 238 234 232
262 269 267 277 282 269 275 220 243 254 252 284 21 11 17 355 333 328 27 7 348 337 335 334 334 336 333 333 331 308 288 279 271 269 268 262 255 251 248 243 241 236 232 230
226 247 266 257 261 280 274 22 352 311 316 28 22 18 353 357 340 249 349 341 329 321 321 324 329 326 325 326 330 332 327 303 290 278 271 264 256 251 246 243 238 234 231 228
303 264 268 281 283 285 16 355 337 309 194 32 353 350 346 348 342 315 323 326 326 320 321 322 323 322 323 328 330 330 330 328 314 292 276 265 257 250 247 244 239 235 233 230
344 321 272 274 267 255 27 342 349 356 299 351 355 340 339 333 308 306 312 313 315 315 316 321 320 315 311 317 321 324 324 323 318 312 293 275 263 254 250 245 239 236 231 229
276 305 299 305 259 256 356 332 80 252 309 329 333 328 321 309 306 306 304 307 316 312 312 317 318 318 313 313 315 309 312 317 305 302 300 281 264 254 249 243 239 234 230 229
272 203 221 191 266 300 309 297 306 293 296 315 318 320 315 310 309 309 314 317 316 311 311 313 311 309 310 309 305 305 297 303 305 292 279 281 273 258 252 244 243 238 232 228
246 253 230 318 259 262 289 295 277 307 318 312 312 314 317 318 320 314 315 317 315 316 314 313 312 306 303 300 301 299 297 293 295 287 273 265 263 259 255 250 245 241 235 233
227 335 241 253 279 280 277 291 294 306 292 299 310 313 315 314 314 315 317 318 315 311 308 308 304 299 296 294 294 297 294 295 294 289 278 264 255 251 248 242 244 245 242 237
238 249 255 260 266 283 279 290 303 292 294 312 309 305 309 309 309 314 307 304 300 302 304 303 305 303 299 300 295 287 283 295 290 285 280 270 260 250 244 242 237 233 236 237
Wind_Speed_850mb
12 9 20 46 34 9 6 13 14 18 19 11 24 32 37 64 43 48 71 88 92 95 108 96 96 89 86 85 89 90 90 87 86 86 84 83 85 83 82 77 71 69 64 61
4 22 40 12 12 21 27 33 39 30 34 15 30 45 34 29 51 64 67 78 93 100 100 106 102 84 75 77 87 97 96 92 89 88 86 86 83 84 83 79 77 74 70 67
36 19 29 23 15 16 31 30 34 36 13 11 20 34 24 28 54 70 78 87 98 101 108 105 97 83 70 73 80 93 98 95 91 88 87 87 84 83 85 86 85 82 76 72
18 26 27 16 18 29 42 25 30 21 6 23 4 39 14 17 28 24 54 75 82 94 98 100 94 77 70 73 74 86 97 94 89 88 87 94 94 92 94 94 91 85 80 77
18 9 13 25 43 20 35 9 13 6 8 11 11 12 7 17 16 25 31 64 77 84 91 87 82 66 63 63 67 78 91 92 89 87 88 91 93 89 90 91 88 85 82 80
22 4 10 17 10 18 5 7 9 9 3 23 24 19 5 13 17 12 21 64 76 69 72 83 54 49 53 58 67 79 90 90 88 86 90 92 90 91 93 93 87 85 86 83
5 12 10 16 8 4 8 11 7 7 1 25 17 15 42 11 17 24 27 53 63 71 82 74 54 46 56 61 67 78 86 90 91 90 89 89 91 92 90 91 89 87 88 91
5 28 20 11 21 19 22 24 13 16 28 44 12 23 24 21 27 51 59 68 73 80 79 67 42 43 51 61 66 75 83 89 92 88 90 92 92 92 92 90 89 90 89 86
10 28 4 7 3 17 6 12 32 3 2 1 22 30 18 11 15 16 31 46 72 77 68 54 46 43 44 53 63 73 77 85 91 92 96 97 95 94 95 91 88 90 89 85
8 23 10 7 4 2 14 3 3 3 5 16 30 11 31 19 30 13 17 28 50 44 45 49 46 41 39 45 53 61 68 80 91 99 100 100 99 97 96 92 90 89 89 88
8 6 39 1 14 27 1 10 10 5 10 30 36 34 14 10 11 11 13 30 46 41 32 21 24 32 36 36 48 49 66 82 96 95 98 104 107 106 105 101 95 90 89 86
12 12 17 36 17 9 9 26 26 23 26 18 30 36 55 39 40 28 43 52 47 36 29 22 27 29 36 47 52 69 73 83 86 88 96 102 109 112 112 113 107 98 94 88
15 10 15 12 13 18 23 36 29 29 27 47 42 41 45 50 49 60 32 52 63 72 69 72 57 54 56 69 73 77 74 79 76 87 95 106 112 111 113 117 114 105 100 93
23 24 34 41 39 11 13 16 18 31 32 45 43 46 47 57 57 68 63 65 64 70 71 76 82 96 87 76 78 65 79 83 87 94 102 109 113 109 110 113 115 110 105 98
14 30 33 44 55 51 60 58 59 57 57 47 50 51 51 67 72 63 64 58 52 56 57 58 73 85 92 88 88 90 93 89 88 96 108 112 109 107 109 114 111 110 107 100
16 16 33 49 51 53 56 64 66 66 64 62 62 63 61 67 91 65 73 73 53 44 34 40 52 69 84 88 93 92 97 93 90 100 108 108 113 111 109 108 108 107 104 96
16 19 29 39 28 40 43 58 58 65 58 59 61 64 41 38 38 38 45 57 51 51 51 55 57 66 66 64 71 76 78 77 83 90 98 105 108 108 107 103 103 104 102 97
43 45 31 38 45 60 44 21 41 55 62 36 27 33 29 39 62 13 53 71 62 64 64 71 76 77 80 70 64 59 53 53 63 75 83 91 97 99 100 98 97 99 99 98
39 36 22 29 41 46 43 16 17 27 2 32 18 33 34 54 65 7 70 73 67 68 71 71 73 82 80 71 70 63 55 42 46 58 68 77 85 89 91 90 93 96 98 98
18 14 24 33 35 43 14 23 62 29 12 27 23 32 25 45 32 32 85 70 71 74 79 75 76 82 80 75 71 69 66 57 47 49 59 65 67 74 79 80 84 90 91 95
8 9 19 26 31 19 20 26 39 8 16 35 19 17 31 23 26 75 73 67 66 69 80 81 78 80 82 82 73 73 68 58 51 43 48 49 52 57 65 70 75 82 86 89
8 12 14 7 11 31 48 14 2 13 20 26 31 40 42 43 52 59 64 62 63 67 69 74 88 100 96 84 72 74 72 61 58 46 44 42 41 43 51 63 71 78 78 86
10 11 5 6 9 47 49 20 41 22 15 28 43 46 47 47 51 57 65 73 72 72 77 78 79 90 95 87 79 71 65 60 60 64 55 55 42 38 43 54 63 70 76 84
8 18 7 8 13 23 43 48 15 24 45 43 46 52 54 54 68 68 70 85 86 88 82 77 80 82 95 88 84 80 83 76 75 72 68 66 65 62 53 52 62 69 77 86
16 1 14 14 29 41 39 39 37 39 33 41 55 58 60 50 75 69 82 94 93 93 99 87 78 83 103 99 91 85 81 83 85 80 81 82 77 76 73 70 70 77 83 87
32 34 23 27 44 33 42 49 41 30 31 49 44 51 68 57 70 75 78 82 79 94 94 97 105 104 110 97 94 89 68 67 73 80 86 89 87 84 79 78 76 75 84 85
Wind_Direction_850mb
191 130 205 228 209 221 199 219 230 254 265 218 234 244 252 269 268 258 262 264 262 262 267 267 266 265 261 252 247 241 237 234 227 224 223 225 228 228 229 229 230 231 232 234
159 210 222 242 196 225 243 256 261 267 265 204 254 258 259 260 266 262 259 263 263 267 268 268 270 270 263 255 251 240 236 234 228 226 228 229 231 231 233 232 232 233 233 234
223 222 220 222 227 230 231 236 251 252 300 241 283 271 252 249 255 263 259 256 264 265 267 270 272 270 262 252 245 241 236 232 228 226 225 228 230 231 231 230 231 232 232 233
244 236 216 200 222 212 260 228 254 260 278 272 91 292 212 235 245 247 254 262 258 263 266 268 271 267 257 258 247 239 234 231 227 227 228 228 230 227 229 231 232 232 232 234
240 193 196 217 233 189 259 237 247 236 234 325 203 252 189 204 241 249 254 251 263 275 275 275 271 266 259 248 245 240 231 229 227 230 231 230 231 233 235 234 234 234 234 235
244 206 193 219 187 192 129 62 24 49 39 268 216 210 60 167 207 248 251 257 262 268 272 274 274 248 240 241 239 235 228 226 228 230 231 231 233 233 234 234 234 234 235 235
305 219 212 183 229 144 140 112 293 311 70 254 195 220 260 253 221 213 238 252 264 270 267 264 264 240 228 229 233 232 227 227 227 229 230 231 233 235 237 238 238 236 235 235
271 289 172 177 198 198 209 201 186 208 264 272 145 251 271 225 238 233 247 262 271 269 269 266 244 246 235 230 227 229 230 230 231 232 230 230 231 235 237 239 239 241 241 241
208 265 124 192 170 154 168 190 231 292 63 10 260 275 283 230 279 292 292 299 286 277 275 266 243 240 229 231 231 232 231 234 236 234 231 231 232 234 236 238 239 240 243 243
298 282 211 95 42 37 176 172 74 200 197 258 271 242 263 289 275 287 309 311 326 310 269 251 243 238 229 240 245 242 242 243 239 235 235 236 236 235 238 238 240 241 242 242
63 37 278 356 195 244 253 233 220 220 208 245 258 270 232 197 173 289 297 340 343 330 297 263 256 255 254 251 250 256 252 246 242 242 241 241 241 240 240 240 239 241 243 243
208 170 224 256 266 246 223 261 243 247 251 234 255 253 280 277 284 277 284 292 297 310 262 248 285 293 282 277 269 282 264 255 252 249 246 247 245 244 243 244 242 240 241 241
182 214 266 275 283 250 229 239 240 256 263 250 253 254 253 275 275 275 264 272 276 281 271 270 290 292 292 287 281 277 262 255 258 254 252 250 248 247 246 246 244 242 241 239
234 247 243 254 254 266 243 205 217 243 256 261 252 262 268 269 272 272 270 278 275 273 273 281 285 290 297 289 284 280 285 270 266 259 257 254 250 250 249 248 246 242 240 237
211 246 243 247 258 262 262 260 261 254 237 240 250 255 254 261 268 271 282 274 280 283 289 292 285 280 282 281 276 279 277 271 272 263 259 259 258 254 250 248 247 242 239 237
327 296 287 273 254 246 247 253 257 257 253 256 260 259 259 262 266 281 280 285 295 291 324 335 327 305 290 281 283 281 280 278 276 267 263 260 255 252 250 248 245 239 236 233
262 277 282 279 297 302 278 248 253 256 265 265 264 267 319 314 312 326 17 32 8 1 353 351 355 353 340 315 299 289 286 281 276 271 267 261 255 251 249 246 241 238 234 232
262 269 267 277 282 269 275 220 243 254 252 284 21 11 17 355 333 328 27 7 348 337 335 334 334 336 333 333 331 308 288 279 271 269 268 262 255 251 248 243 241 236 232 230
226 247 266 257 261 280 274 22 352 311 316 28 22 18 353 357 340 249 349 341 329 321 321 324 329 326 325 326 330 332 327 303 290 278 271 264 256 251 246 243 238 234 231 228
303 264 268 281 283 285 16 355 337 309 194 32 353 350 346 348 342 315 323 326 326 320 321 322 323 322 323 328 330 330 330 328 314 292 276 265 257 250 247 244 239 235 233 230
344 321 272 274 267 255 27 342 349 356 299 351 355 340 339 333 308 306 312 313 315 315 316 321 320 315 311 317 321 324 324 323 318 312 293 275 263 254 250 245 239 236 231 229
276 305 299 305 259 256 356 332 80 252 309 329 333 328 321 309 306 306 304 307 316 312 312 317 318 318 313 313 315 309 312 317 305 302 300 281 264 254 249 243 239 234 230 229
272 203 221 191 266 300 309 297 306 293 296 315 318 320 315 310 309 309 314 317 316 311 311 313 311 309 310 309 305 305 297 303 305 292 279 281 273 258 252 244 243 238 232 228
246 253 230 318 259 262 289 295 277 307 318 312 312 314 317 318 320 314 315 317 315 316 314 313 312 306 303 300 301 299 297 293 295 287 273 265 263 259 255 250 245 241 235 233
227 335 241 253 279 280 277 291 294 306 292 299 310 313 315 314 314 315 317 318 315 311 308 308 304 299 296 294 294 297 294 295 294 289 278 264 255 251 248 242 244 245 242 237
238 249 255 260 266 283 279 290 303 292 294 312 309 305 309 309 309 314 307 304 300 302 304 303 305 303 299 300 295 287 283 295 290 285 280 270 260 250 244 242 237 233 236 237